Weather History for Cut Bank, MT

Change the Weather History Date:

Monday, September 29, 2014

  Actual Average Record
Temperature  
Mean Temperature 55 °F 49 °F  
Max Temperature 66 °F 63 °F 91 °F (1967)
Min Temperature 44 °F 36 °F 18 °F (1929)
Degree Days  
Heating Degree Days 10 16  
Month to date heating degree days 303 329  
Since 1 July heating degree days 400 523  
Cooling Degree Days 0 0  
Month to date cooling degree days 11 6  
Year to date cooling degree days 208 159  
Growing Degree Days 4 (Base 50)    
Moisture  
Dew Point 44 °F    
Average Humidity 74    
Maximum Humidity 100    
Minimum Humidity 48    
Precipitation  
Precipitation 0.00 in 0.03 in 0.53 in (1971)
Month to date precipitation 0.62 1.19  
Year to date precipitation 14.46 9.85  
Snow  
Snow 0.00 in - - ()
Snow Depth 0.00 in    
Sea Level Pressure  
Sea Level Pressure 29.86 in    
Wind  
Wind Speed 13 mph (SSE)    
Max Wind Speed 23 mph    
Max Gust Speed 29 mph    
Visibility 7 miles    
Events Fog    
T = Trace of Precipitation, MM = Missing Value Source: NWS Daily Summary

Daily Weather History Graph

Daily Weather History Graph

Search for Another Location

Airport:

Trip Planner

Search our weather history database for the weather conditions in past years. The results will help you decide how hot, cold, wet, or windy it might be!

Date:

Astronomy

Sep. 29, 2014 Rise Set
Actual Time 7:26 AM MDT 7:12 PM MDT
Civil Twilight 6:54 AM MDT 7:43 PM MDT
Nautical Twilight 6:18 AM MDT 8:20 PM MDT
Astronomical Twilight 5:40 AM MDT 8:57 PM MDT
Moon 1:03 PM MDT (9/29) 10:27 PM MDT (9/29)
Length of Visible Light 12h 48m
Length of Day
11h 46m
Waxing Crescent, 28% of the Moon is Illuminated
Sep 29
Waxing Crescent
Oct 1
First Quarter
Oct 8
Full
Oct 15
Last Quarter
Oct 23
New

Hourly Weather History & Observations

Time (MDT) Temp. Windchill Dew Point Humidity Pressure Visibility Wind Dir Wind Speed Gust Speed Precip Events Conditions
12:56 AM 46.0 °F 40.2 °F 43.0 °F 89% 30.09 in 10.0 mi SE 12.7 mph - N/A   Overcast
1:31 AM 46.0 °F 41.0 °F 43.0 °F 89% 30.07 in 10.0 mi SE 10.4 mph - N/A   Overcast
1:56 AM 46.0 °F 41.0 °F 43.0 °F 89% 30.07 in 10.0 mi SE 10.4 mph - N/A   Overcast
2:54 AM 46.4 °F 41.1 °F 42.8 °F 87% 30.04 in 10.0 mi SE 11.5 mph - N/A   Overcast
2:56 AM 46.0 °F 41.0 °F 43.0 °F 89% 30.04 in 10.0 mi SE 10.4 mph - N/A   Overcast
3:56 AM 46.0 °F 42.5 °F 43.0 °F 89% 30.01 in 10.0 mi SE 6.9 mph - N/A   Overcast
4:56 AM 45.0 °F 38.9 °F 43.0 °F 93% 29.98 in 8.0 mi SE 12.7 mph - N/A   Overcast
5:06 AM 44.1 °F 37.1 °F 43.0 °F 96% 29.96 in 1.8 mi SE 15.0 mph - N/A   Overcast
5:38 AM 45.0 °F 37.6 °F 43.0 °F 93% 29.96 in 3.0 mi SE 17.3 mph - N/A   Overcast
5:56 AM 45.0 °F 37.4 °F 43.0 °F 93% 29.96 in 3.0 mi SE 18.4 mph - N/A   Overcast
6:34 AM 44.1 °F 36.8 °F 43.0 °F 96% 29.96 in 1.8 mi SSE 16.1 mph - N/A   Overcast
6:46 AM 44.1 °F 37.4 °F 43.0 °F 96% 29.95 in 0.5 mi SSE 13.8 mph - N/A Fog Fog
6:56 AM 44.1 °F 37.4 °F 43.0 °F 96% 29.96 in 0.5 mi SSE 13.8 mph - N/A Fog Fog
7:51 AM 44.6 °F 39.2 °F 44.6 °F 100% 29.93 in 1.2 mi SSE 10.4 mph - N/A   Overcast
7:56 AM 44.1 °F 39.0 °F 43.0 °F 96% 29.94 in 0.8 mi SSE 9.2 mph - N/A   Mist
8:17 AM 45.0 °F 39.7 °F 44.1 °F 97% 29.91 in 0.2 mi SE 10.4 mph - N/A Fog Fog
8:56 AM 45.0 °F 40.1 °F 44.1 °F 97% 29.92 in 0.5 mi ESE 9.2 mph - N/A Fog Fog
9:08 AM 45.0 °F 39.7 °F 44.1 °F 97% 29.90 in 2.0 mi SE 10.4 mph - N/A   Overcast
9:17 AM 45.0 °F 39.3 °F 44.1 °F 97% 29.90 in 4.0 mi SE 11.5 mph - N/A   Overcast
9:56 AM 46.0 °F 39.9 °F 44.1 °F 93% 29.89 in 10.0 mi SSE 13.8 mph - N/A   Overcast
10:26 AM 48.0 °F - 44.1 °F 86% 29.88 in 10.0 mi SSE 13.8 mph - N/A   Overcast
10:56 AM 50.0 °F - 45.0 °F 83% 29.86 in 10.0 mi SE 13.8 mph - N/A   Overcast
11:10 AM 50.0 °F - 45.0 °F 83% 29.86 in 10.0 mi SSE 17.3 mph 23.0 mph N/A   Overcast
11:52 AM 53.6 °F - 44.6 °F 72% 29.83 in 10.0 mi SE 15.0 mph - N/A   Partly Cloudy
11:56 AM 55.9 °F - 45.0 °F 67% 29.81 in 10.0 mi SSE 12.7 mph 21.9 mph N/A   Partly Cloudy
12:56 PM 60.1 °F - 45.0 °F 57% 29.78 in 10.0 mi SSE 17.3 mph 25.3 mph N/A   Clear
1:56 PM 63.0 °F - 45.0 °F 52% 29.74 in 10.0 mi South 12.7 mph - N/A   Clear
2:56 PM 64.9 °F - 46.0 °F 50% 29.71 in 10.0 mi SSE 13.8 mph - N/A   Clear
3:56 PM 64.9 °F - 46.0 °F 50% 29.68 in 10.0 mi South 11.5 mph - N/A   Mostly Cloudy
4:56 PM 64.0 °F - 45.0 °F 50% 29.67 in 10.0 mi South 10.4 mph - N/A   Overcast
5:56 PM 60.1 °F - 43.0 °F 53% 29.67 in 10.0 mi WSW 19.6 mph 28.8 mph N/A   Clear
6:56 PM 57.0 °F - 43.0 °F 59% 29.67 in 10.0 mi WSW 19.6 mph 24.2 mph N/A   Clear
7:56 PM 55.0 °F - 43.0 °F 64% 29.68 in 10.0 mi WSW 12.7 mph - N/A   Clear
8:56 PM 55.9 °F - 43.0 °F 62% 29.67 in 10.0 mi SW 12.7 mph - N/A   Overcast
9:56 PM 55.0 °F - 43.0 °F 64% 29.65 in 10.0 mi WSW 9.2 mph - N/A   Overcast
10:56 PM 57.0 °F - 41.0 °F 55% 29.62 in 10.0 mi West 18.4 mph - N/A   Overcast
11:56 PM 55.9 °F - 42.1 °F 60% 29.60 in 10.0 mi West 15.0 mph - N/A   Overcast